OPS 4682 DEB, 51489

Orbit data source: Space-Track

OPS 4682 DEB, 51489 is space debris in LEO originally from a launch on Sat, 03 Apr 1965 UTC launched from the Air Force Western Test Range (AFWTR). Debris objects in space refer to the collection of defunct objects orbiting the Earth. Examples of debris include non-operational satellites, rocket bodies, and fragments generated from explosions, collisions, or faulty payload assembly.

Loading next visibility...
Identifier
51489, 1965-027FZ
Orbit
LEO
Country
Flag of USUS
Related business
Manufacturer
Unknown
Mission
Spacecraft
Bus & Motor
Unknown
Mass
Unknown
Launch date (UTC)
1965-04-03 (61 years ago)
Launch vehicle
Unknown
Launch site
Air Force Western Test Range (AFWTR)
Object type
Payload
Rocket body
Debris
Shape & HBR
Unknown
Radar Cross Section
Medium (>0.1 m² and <1 m²)

Expand to show TLE details & history
Last TLE update: 2 days ago

TLE from 2 days ago
0 OPS 4682 DEB
1 51489U 65027FZ  26206.85841539  .00000049  00000-0  14907-3 0  9993
2 51489  90.2443   7.8937 0027860 153.0228 207.2346 12.93814789481626
Epoch: 2026-07-25T20:36Z
TLE epoch observation values (Epoch: 2026-07-25T20:36:07.089Z)
Latitude
-0°
Longitude
115.2995°
Altitude
1,308.294 km
Speed
7.194 km/s
True Right ascension
00h 31m 34s
True Declination
0° 00' 00"
Sunlit
Object was in daylight at epoch
Visualization orbit readout
Latitude
Unknown
Longitude
Unknown
Altitude
Unknown
Speed
Unknown
Apparent Right ascension
Unknown
Apparent Declination
Unknown
Sunlit
N/A
Visualization observer readout
Local Sidereal Time
22:25:41
Azimuth
Unknown
Elevation
Unknown
Doppler factor
Unknown
Orbital elements
Apogee altitude
1,304.899 km
Perigee altitude
1,262.208 km
Semi-major axis
7,661.69 km
Eccentricity
0.00279
Inclination
90.2443°
RAAN
7.8937°
Arg. of periapsis
153.0228°
True anomaly
207.08895°
Mean anomaly
207.2346°
Eccentric anomaly
207.16173°
Mean motion
3.23636 °/min
Orbital period
111.24 mins
BSTAR
0.00014907
Loading maneuver chart data...
Computing Atmospheric mass density...
Loading historical data...
Loading historical data...
Loading historical data...
Loading historical data...
Loading historical data...
Loading historical data...
Loading historical data...

Documentation

Showing up to 5 results
|